[[{"header":{"parameterUnit":"m.s-1","parameterCategory":1,"la1":30.2991,"la2":30.254,"lo1":-89.0895,"lo2":-89.0444,"dy":0.0017,"dx":0.0017,"nx":28,"ny":28,"refTime":"2025-07-13T03:00:00:Z","depth":0,"parameterNumber":2,"parameterNumberName":"U-component_of_WINDS"},"data":[0,0,0,0,0,0,0,0,0,0,0,0,0,0,0,0,0,0,0,0,0,0,0,0,0,0,0,0,0,0,0,0,0,0,0,0,0,0,0,0,0,0,0,0,0,0,0,0,0,0,0,0,0,0,0,0,0,0,1.0679,1.0681,0,1.0846,1.0848,1.085,1.0927,1.0927,1.0927,1.0927,1.1098,1.1102,1.1107,0,0,0,0,0,0,0,0,0,0,0,0,0,1.0427,1.0432,1.0679,1.0681,1.0683,1.0846,1.0848,1.085,1.0927,1.0927,1.0927,1.0926,1.1096,1.1102,1.1108,0,0,0,0,0,0,0,0,0,0,0,0,0,1.056,1.0433,1.0679,1.0741,1.0748,1.0845,1.0848,1.0851,1.0927,1.0927,1.0927,1.0926,1.1095,1.1101,1.1108,1.1156,0,0,1.113,1.1133,0,0,0,0,0,0,0,0,1.0552,1.0569,1.073,1.0737,1.0745,1.0865,1.0822,1.0953,1.0927,1.0859,1.0927,1.0926,1.1021,1.1034,1.1066,1.1164,1.1171,1.113,1.1135,1.1138,1.114,0,0,0,0,0,0,0,1.0543,1.0562,1.0745,1.0732,1.0742,1.0761,1.0779,1.0847,1.0939,1.0865,1.0871,1.089,1.1025,1.1059,1.107,1.1174,1.113,1.1136,1.1141,1.1144,1.1319,1.132,0,0,0,0,0,0,1.0523,1.0554,1.074,1.075,1.0646,1.0766,1.0786,1.0827,1.0939,1.0955,1.089,1.0893,1.1047,1.1062,1.1076,1.114,1.1138,1.1144,1.1148,1.1319,1.1319,1.132,0,0,0,0,0,0,1.0518,1.0539,1.0733,1.0654,1.068,1.077,1.0815,1.0831,1.0864,1.0957,1.0974,1.0907,1.1047,1.1067,1.1135,1.1147,1.1147,1.1154,1.1318,1.1319,1.132,1.1266,0,0,0,0,0,0,1.051,1.0537,1.0556,1.0654,1.0684,1.0789,1.0816,1.0834,1.0876,1.0882,1.0978,1.0994,1.1048,1.1125,1.1142,1.1157,1.1159,1.1318,1.1319,1.1319,1.1267,1.1265,1.1263,0,0,0,0,0,1.0501,1.0534,1.0556,1.0578,1.071,1.079,1.0807,1.0869,1.0877,1.0897,1.0956,1.0991,1.1142,1.1131,1.1152,1.1168,1.1317,1.1318,1.1319,1.1268,1.1265,1.1263,0,0,0,0,0,0,1.0436,1.0548,1.0574,1.064,1.0705,1.0803,1.083,1.0864,1.0928,1.093,1.1005,1.1026,1.1088,1.1135,1.112,1.122,1.1233,1.1238,1.1187,1.1185,1.1183,1.1171,1.1165,0,0,0,0,0,1.0429,1.0484,1.058,1.0629,1.066,1.0739,1.0776,1.0818,1.0888,1.0916,1.0981,1.1048,1.111,1.115,1.1213,1.1274,1.1296,1.1296,1.1293,1.1291,1.1295,1.1331,1.1332,1.1323,1.1323,1.1323,0,0,1.0415,1.0484,1.0515,1.0617,1.0673,1.0729,1.0761,1.0819,1.0862,1.0925,1.0994,1.1044,1.1123,1.1188,1.122,1.1229,1.1302,1.1292,1.129,1.1295,1.1332,1.1333,1.1333,1.1324,1.1324,1.1324,0,0,1.042,1.0477,1.0525,1.0579,1.0662,1.0714,1.0725,1.0818,1.0853,1.0923,1.0972,1.1023,1.113,1.1184,1.1226,1.125,1.1285,1.1268,1.1257,1.1291,1.1292,1.1293,1.1302,1.1304,1.1272,1.1272,1.1272,0,1.0393,1.048,1.0544,1.06,1.0644,1.0703,1.0751,1.0801,1.09,1.0929,1.0937,1.1072,1.1129,1.1208,1.1214,1.1246,1.1261,1.1258,1.1287,1.1288,1.129,1.13,1.1303,1.1269,1.127,1.127,1.127,0,1.0443,1.0502,1.053,1.0624,1.0671,1.0722,1.0795,1.0834,1.0872,1.0923,1.0994,1.1065,1.1143,1.1164,1.1202,1.1249,1.1252,1.1272,1.1287,1.1287,1.1298,1.1302,1.1266,1.1267,1.1267,1.1268,0,0,1.0412,1.054,1.055,1.0593,1.0689,1.0736,1.0789,1.0866,1.0898,1.0964,1.1012,1.11,1.1119,1.1166,1.121,1.124,1.1255,1.1258,1.126,1.1255,1.1311,1.1296,1.1299,1.1278,1.1279,1.128,1.1305,0,1.043,1.053,1.0589,1.0665,1.072,1.0777,1.0824,1.0887,1.0936,1.099,1.1044,1.1106,1.1127,1.1156,1.1187,1.1246,1.1267,1.1245,1.1323,1.1325,1.1302,1.1304,1.1288,1.1309,1.1309,1.131,1.131,0,1.0465,1.053,1.0611,1.07,1.0725,1.0766,1.0841,1.0892,1.0965,1.0998,1.105,1.1094,1.1153,1.1162,1.1245,1.1228,1.1263,1.1297,1.1299,1.131,1.1318,1.1315,1.1317,1.132,1.1317,1.1317,1.1316,0,1.0435,1.0542,1.0605,1.064,1.0745,1.0773,1.0818,1.0891,1.0932,1.0997,1.1025,1.1096,1.1135,1.1189,1.1251,1.1251,1.1327,1.1341,1.1357,1.1355,1.1371,1.137,1.1379,1.1392,1.1392,1.1392,1.1392,0,1.045,1.0497,1.0593,1.0631,1.0686,1.0753,1.0805,1.0855,1.0919,1.0968,1.1021,1.1065,1.1144,1.1198,1.1247,1.1308,1.1325,1.1354,1.1367,1.135,1.1346,1.1375,1.1375,1.1393,1.1393,1.1393,1.1392,0,1.0426,1.0492,1.0564,1.0657,1.0682,1.0718,1.0798,1.0837,1.0888,1.095,1.0968,1.1048,1.1115,1.1182,1.1272,1.1304,1.1365,1.1381,1.134,1.1347,1.1359,1.1357,1.1388,1.1396,1.1402,1.1402,1.1402,0,1.0432,1.047,1.0567,1.0604,1.0647,1.0706,1.0749,1.0816,1.0859,1.0944,1.0973,1.1044,1.1104,1.1208,1.1274,1.1343,1.1362,1.1368,1.1373,1.1355,1.1363,1.1361,1.1365,1.1366,1.1366,1.1365,1.1365,0,1.0435,1.0465,1.0525,1.0597,1.0646,1.0706,1.0767,1.0794,1.0873,1.0918,1.0987,1.1033,1.1125,1.1194,1.1271,1.1318,1.1355,1.1363,1.137,1.1354,1.1329,1.1343,1.1335,1.1362,1.1363,1.1363,1.1363,1.1363,1.0427,1.0463,1.0537,1.0602,1.0655,1.0711,1.0753,1.0809,1.0867,1.0947,1.0983,1.1052,1.1124,1.1231,1.1276,1.1331,1.1341,1.1352,1.1355,1.1357,1.1353,1.1319,1.1346,1.1346,1.1346,1.1346,1.1346,0,1.0433,1.0483,1.0542,1.0626,1.0677,1.0707,1.0776,1.0817,1.0877,1.0941,1.0999,1.1078,1.1145,1.1216,1.1288,1.1318,1.1337,1.1335,1.1334,1.1344,1.134,1.1326,1.1318,1.1318,1.1318,1.1318,1.1318,1.1318,1.0442,1.0505,1.0544,1.0634,1.0684,1.0753,1.0789,1.0841,1.0892,1.0978,1.1034,1.108,1.1147,1.1224,1.1287,1.1306,1.133,1.1323,1.1347,1.1342,1.1344,1.1346,1.1334,1.1328,1.1328,1.1347,1.1347,1.1347]},{"header":{"parameterUnit":"m.s-1","parameterCategory":1,"la1":30.2991,"la2":30.254,"lo1":-89.0895,"lo2":-89.0444,"dy":0.0017,"dx":0.0017,"nx":28,"ny":28,"refTime":"2025-07-13T03:00:00:Z","depth":0,"parameterNumber":3,"parameterNumberName":"V-component_of_WINDS"},"data":[0,0,0,0,0,0,0,0,0,0,0,0,0,0,0,0,0,0,0,0,0,0,0,0,0,0,0,0,0,0,0,0,0,0,0,0,0,0,0,0,0,0,0,0,0,0,0,0,0,0,0,0,0,0,0,0,0,0,4.2049,4.2048,0,4.2011,4.2011,4.201,4.2002,4.2003,4.2003,4.2003,4.1959,4.1957,4.1956,0,0,0,0,0,0,0,0,0,0,0,0,0,4.2108,4.2107,4.2049,4.2048,4.2048,4.2011,4.2011,4.201,4.2002,4.2003,4.2003,4.2003,4.1959,4.1957,4.1956,0,0,0,0,0,0,0,0,0,0,0,0,0,4.2077,4.2106,4.2049,4.2039,4.2038,4.2011,4.2011,4.201,4.2002,4.2003,4.2003,4.2003,4.196,4.1958,4.1955,4.1933,0,0,4.1949,4.1948,0,0,0,0,0,0,0,0,4.2079,4.2075,4.2041,4.204,4.2039,4.2012,4.2015,4.1984,4.2002,4.2016,4.2003,4.2004,4.1976,4.1972,4.1964,4.1931,4.1929,4.1949,4.1947,4.1946,4.1946,0,0,0,0,0,0,0,4.2081,4.2077,4.2034,4.2041,4.2039,4.2035,4.2032,4.2009,4.1993,4.2015,4.2014,4.201,4.1975,4.1966,4.1963,4.1929,4.1949,4.1947,4.1945,4.1945,4.1876,4.1875,0,0,0,0,0,0,4.2086,4.2078,4.2035,4.2033,4.2061,4.2034,4.203,4.202,4.1994,4.199,4.201,4.201,4.197,4.1966,4.1961,4.1934,4.1946,4.1944,4.1943,4.1876,4.1876,4.1875,0,0,0,0,0,0,4.2087,4.2082,4.2036,4.2055,4.2049,4.2033,4.2022,4.2019,4.201,4.199,4.1987,4.2004,4.197,4.1964,4.1941,4.1932,4.1943,4.1941,4.1877,4.1876,4.1876,4.1879,0,0,0,0,0,0,4.2089,4.2082,4.2075,4.2055,4.2048,4.2018,4.2021,4.2018,4.2007,4.2007,4.1984,4.198,4.197,4.1944,4.1939,4.1929,4.194,4.1878,4.1877,4.1876,4.1879,4.1878,4.1877,0,0,0,0,0,4.2091,4.2076,4.2075,4.2069,4.2039,4.2018,4.2013,4.2004,4.2007,4.1998,4.1985,4.1981,4.1934,4.1942,4.1936,4.1926,4.1878,4.1877,4.1876,4.188,4.1879,4.1877,0,0,0,0,0,0,4.2092,4.2073,4.2071,4.205,4.2036,4.2016,4.2006,4.2002,4.1985,4.1985,4.1972,4.1967,4.1944,4.1932,4.1941,4.1903,4.1906,4.1904,4.1911,4.191,4.1909,4.1912,4.1938,0,0,0,0,0,4.2091,4.2077,4.206,4.2043,4.2036,4.2022,4.2012,4.2006,4.199,4.1983,4.1969,4.1951,4.1933,4.1921,4.1902,4.1878,4.1872,4.1868,4.1867,4.1866,4.1864,4.185,4.1848,4.1871,4.1871,4.1871,0,0,4.2086,4.2074,4.2066,4.2043,4.2031,4.2015,4.2017,4.2,4.1988,4.198,4.1958,4.1946,4.1926,4.1902,4.1891,4.1892,4.1856,4.1865,4.1864,4.1862,4.1849,4.1846,4.1844,4.1871,4.1871,4.1871,0,0,4.207,4.206,4.2045,4.2034,4.2017,4.2008,4.2004,4.1986,4.1978,4.1956,4.195,4.1934,4.1903,4.1889,4.1878,4.1858,4.1853,4.1852,4.1846,4.1833,4.1831,4.1829,4.1822,4.182,4.185,4.185,4.185,0,4.2066,4.2045,4.2037,4.2021,4.2011,4.2005,4.1989,4.1978,4.1955,4.1947,4.1949,4.191,4.1896,4.1869,4.1865,4.1856,4.185,4.1854,4.1833,4.1831,4.1829,4.1822,4.1819,4.185,4.185,4.185,4.185,0,4.204,4.2025,4.2015,4.1996,4.1984,4.1968,4.1956,4.1945,4.194,4.1931,4.1908,4.1891,4.187,4.1863,4.1857,4.1835,4.1836,4.1836,4.1838,4.1827,4.182,4.1817,4.185,4.185,4.185,4.185,0,0,4.2023,4.2002,4.1998,4.1989,4.1971,4.1958,4.1941,4.1923,4.1913,4.1898,4.1883,4.1857,4.1857,4.1844,4.1836,4.1825,4.181,4.1825,4.1824,4.1823,4.1784,4.1785,4.1782,4.1807,4.1806,4.1806,4.1786,0,4.2005,4.1978,4.1971,4.1946,4.1932,4.1927,4.1912,4.1899,4.1889,4.1874,4.1863,4.1845,4.1846,4.1839,4.1827,4.1814,4.1802,4.1816,4.1791,4.1791,4.1797,4.1778,4.1779,4.1761,4.1783,4.1783,4.1782,0,4.198,4.1967,4.1942,4.1926,4.1919,4.1907,4.1889,4.1876,4.186,4.1854,4.1841,4.1834,4.1815,4.182,4.1793,4.1802,4.1792,4.1784,4.1783,4.178,4.1786,4.1774,4.1755,4.1752,4.1778,4.1778,4.1779,0,4.197,4.1945,4.1928,4.192,4.1901,4.1893,4.1884,4.1869,4.1858,4.1842,4.1835,4.1816,4.1806,4.1791,4.1779,4.1784,4.1753,4.1757,4.1747,4.1747,4.174,4.174,4.1718,4.1734,4.1734,4.1734,4.1734,0,4.195,4.1935,4.1923,4.1912,4.1895,4.1886,4.1869,4.186,4.1846,4.1832,4.1826,4.1812,4.1798,4.1782,4.1773,4.1752,4.1747,4.1741,4.1738,4.1741,4.1742,4.1734,4.1734,4.1733,4.1733,4.1733,4.1733,0,4.1936,4.1928,4.1908,4.1892,4.1888,4.1876,4.1862,4.185,4.1841,4.1824,4.1819,4.1804,4.1785,4.1773,4.1748,4.1741,4.1719,4.1716,4.1725,4.1724,4.1714,4.1715,4.1685,4.1681,4.17,4.17,4.17,0,4.1924,4.1912,4.1896,4.1888,4.188,4.1865,4.1856,4.1846,4.1836,4.1817,4.1808,4.1789,4.1774,4.1744,4.1729,4.171,4.1707,4.1698,4.1704,4.1708,4.1707,4.1708,4.1706,4.1697,4.1697,4.1697,4.1697,0,4.1903,4.19,4.1887,4.1872,4.1861,4.1849,4.1836,4.1829,4.1817,4.1805,4.1788,4.1776,4.1752,4.1733,4.1713,4.1702,4.1697,4.1695,4.1692,4.1694,4.17,4.1697,4.1722,4.1696,4.1696,4.1696,4.1696,4.1696,4.1889,4.1879,4.1867,4.1852,4.1843,4.1831,4.182,4.1811,4.1796,4.1778,4.1773,4.1754,4.1738,4.1711,4.17,4.1684,4.1684,4.1679,4.1678,4.1677,4.1677,4.1703,4.168,4.168,4.168,4.168,4.168,0,4.1868,4.186,4.1847,4.1831,4.182,4.1819,4.1805,4.1795,4.1779,4.1766,4.1752,4.1731,4.1713,4.1698,4.1679,4.1669,4.1666,4.1664,4.1665,4.1662,4.1677,4.1682,4.1667,4.1667,4.1667,4.1667,4.1667,4.1667,4.1855,4.1839,4.1834,4.1812,4.1804,4.1787,4.178,4.1769,4.1758,4.1736,4.1722,4.1714,4.1699,4.1679,4.1662,4.1658,4.1651,4.165,4.1645,4.1659,4.1661,4.1662,4.1667,4.1648,4.1648,4.1631,4.1631,4.1631]}]]